Weather History for Clearfield, PA

Change the Weather History Date:

Thursday, January 16, 2014

  Actual Average (KDUJ) Record (KDUJ)
Temperature  
Mean Temperature 24 °F 23 °F  
Max Temperature 28 °F 31 °F 56 °F (1995)
Min Temperature 19 °F 16 °F -14 °F (1982)
Degree Days  
Heating Degree Days 42 42  
Month to date heating degree days 662  
Since 1 July heating degree days 3324  
Cooling Degree Days 0 0  
Month to date cooling degree days 0  
Year to date cooling degree days 0  
Moisture  
Dew Point 14 °F    
Average Humidity 66    
Maximum Humidity 78    
Minimum Humidity 54    
Precipitation  
Precipitation 0.00 in 0.10 in 0.78 in (1991)
Month to date precipitation 1.66  
Sea Level Pressure  
Sea Level Pressure 29.93 in    
Wind  
Wind Speed 6 mph (WSW)    
Max Wind Speed 10 mph    
Max Gust Speed 17 mph    
Visibility 10 miles    
Events      
T = Trace of Precipitation, MM = Missing Value Source: NWS Daily Summary

Daily Weather History Graph

Daily Weather History Graph

Search for Another Location

Airport:

Trip Planner

Search our weather history database for the weather conditions in past years. The results will help you decide how hot, cold, wet, or windy it might be!

Date:

Astronomy

Jan. 16, 2014 Rise Set
Actual Time 7:36 AM EST 5:11 PM EST
Civil Twilight 7:05 AM EST 5:41 PM EST
Nautical Twilight 6:31 AM EST 6:15 PM EST
Astronomical Twilight 5:59 AM EST 6:48 PM EST
Moon 6:02 PM EST (1/16) 7:27 AM EST (1/16)
Length of Visible Light 10h 35m
Length of Day
9h 35m
Full, 100% of the Moon is Illuminated
Jan 16
Full
Jan 24
Last Quarter
Jan 30
New
Feb 6
First Quarter
Feb 14
Full

Hourly Weather History & Observations

Time (EST) Temp. Windchill Dew Point Humidity Pressure Visibility Wind Dir Wind Speed Gust Speed Precip Events Conditions
12:54 AM 24.1 °F 17.0 °F 14.0 °F 65% 29.98 in 10.0 mi WSW 5.8 mph - N/A   Mostly Cloudy
1:54 AM 23.0 °F 17.0 °F 14.0 °F 68% 29.97 in 10.0 mi SW 4.6 mph - N/A   Overcast
2:54 AM 23.0 °F 17.0 °F 12.9 °F 65% 29.98 in 10.0 mi West 4.6 mph - N/A   Mostly Cloudy
3:54 AM 23.0 °F 17.0 °F 14.0 °F 68% 29.98 in 10.0 mi SSW 4.6 mph - N/A   Overcast
4:49 AM 21.2 °F 12.6 °F 12.2 °F 68% 29.91 in 10.0 mi SW 6.9 mph - N/A   Overcast
4:54 AM 21.9 °F 13.4 °F 12.0 °F 66% 29.96 in 10.0 mi SW 6.9 mph - N/A   Overcast
5:25 AM 21.9 °F 14.5 °F 12.0 °F 66% 29.91 in 10.0 mi SW 5.8 mph - N/A   Overcast
5:54 AM 21.0 °F 12.4 °F 12.0 °F 68% 29.96 in 10.0 mi SW 6.9 mph - N/A   Overcast
6:54 AM 19.9 °F 12.1 °F 12.0 °F 71% 29.98 in 10.0 mi SW 5.8 mph - N/A   Mostly Cloudy
7:54 AM 19.0 °F 13.9 °F 12.0 °F 74% 29.99 in 10.0 mi SW 3.5 mph - N/A   Scattered Clouds
8:54 AM 21.0 °F 14.6 °F 12.9 °F 71% 30.00 in 10.0 mi SW 4.6 mph - N/A   Clear
9:54 AM 24.1 °F 16.0 °F 12.0 °F 60% 30.01 in 10.0 mi Variable 6.9 mph 17.3 mph N/A   Clear
10:54 AM 26.1 °F 16.8 °F 12.0 °F 55% 29.99 in 10.0 mi WSW 9.2 mph - N/A   Partly Cloudy
11:54 AM 27.0 °F 17.3 °F 12.9 °F 56% 29.94 in 10.0 mi WSW 10.4 mph - N/A   Clear
12:54 PM 28.9 °F 22.8 °F 14.0 °F 54% 29.90 in 10.0 mi Variable 5.8 mph - N/A   Partly Cloudy
1:54 PM 28.9 °F 21.1 °F 14.0 °F 54% 29.89 in 10.0 mi SSW 8.1 mph - N/A   Partly Cloudy
2:54 PM 28.9 °F 20.4 °F 14.0 °F 54% 29.88 in 10.0 mi SW 9.2 mph - N/A   Clear
3:54 PM 28.9 °F 21.1 °F 15.1 °F 56% 29.88 in 10.0 mi WSW 8.1 mph - N/A   Clear
4:54 PM 27.0 °F 19.5 °F 15.1 °F 61% 29.88 in 10.0 mi WSW 6.9 mph - N/A   Clear
5:54 PM 26.1 °F 19.4 °F 15.1 °F 63% 29.89 in 10.0 mi West 5.8 mph - N/A   Clear
6:54 PM 25.0 °F - 16.0 °F 69% 29.89 in 10.0 mi Calm Calm - N/A   Scattered Clouds
7:54 PM 26.1 °F - 18.0 °F 71% 29.89 in 10.0 mi Calm Calm - N/A   Overcast
8:54 PM 25.0 °F 20.7 °F 17.1 °F 72% 29.89 in 10.0 mi North 3.5 mph - N/A   Overcast
9:54 PM 24.1 °F 19.7 °F 18.0 °F 77% 29.89 in 10.0 mi North 3.5 mph - N/A   Overcast
10:54 PM 25.0 °F 20.7 °F 19.0 °F 78% 29.89 in 10.0 mi North 3.5 mph - N/A   Overcast
11:54 PM 25.0 °F 20.7 °F 19.0 °F 78% 29.88 in 10.0 mi North 3.5 mph - N/A   Overcast